Miscellaneous Local Product
Issued by NWS Hastings, NE

Home | Current Version | Previous Version | Graphics & Text | Print | Product List | Glossary On
Versions: 1 2 3 4 5 6 7 8 9 10 11 12 13 14 15 16 17 18 19 20 21 22 23 24 25 26 27 28 29 30 31 32 33 34 35 36 37 38 39 40 41 42 43 44 45 46 47 48 49 50
000
AXUS43 KGID 051802
MISGRI

GID CWA HOURLY WEATHER ROUNDUP
NATIONAL WEATHER SERVICE HASTINGS NE
1200 PM CST THU MAR 05 2015

NOTE: "FAIR" INDICATES FEW OR NO CLOUDS BELOW 12,000 FEET WITH NO
SIGNIFICANT WEATHER AND/OR OBSTRUCTIONS TO VISIBILITY.

...SOUTH CENTRAL NEBRASKA...

CITY           SKY/WX    TMP DP  RH WIND       PRES   REMARKS
GRAND ISLAND   FAIR      25   6  44 S18G24    30.41F WCI  11
HASTINGS       FAIR      26   5  40 S10G20    30.40F WCI  16
KEARNEY        FAIR      28  10  47 S14       30.38F WCI  17
ORD            SUNNY     26   3  37 S18       30.35F WCI  13
YORK           FAIR      25   5  42 S13       30.45F WCI  13
AURORA         FAIR      26   6  43 S13       30.42F WCI  14
LEXINGTON      SUNNY     29  11  47 S9        30.35S WCI  20
HOLDREGE       FAIR      27  10  48 S8        30.37F WCI  18
HEBRON         FAIR      28   1  31 S8        30.48F WCI  19

...NEBRASKA PANHANDLE...

CITY           SKY/WX    TMP DP  RH WIND       PRES   REMARKS
CHADRON        CLOUDY    26  12  55 W9        30.21S WCI  17
ALLIANCE       PTSUNNY   40  10  29 NW22      30.17F WCI  30
SCOTTSBLUFF    PTSUNNY   38  17  42 NW18      30.22R WCI  28
SIDNEY         SUNNY     41  17  38 W23G31    30.22F

...WESTERN AND NORTH CENTRAL NEBRASKA...

CITY           SKY/WX    TMP DP  RH WIND       PRES   REMARKS
VALENTINE      SUNNY     32   5  32 SW8       30.22F WCI  25
AINSWORTH      SUNNY     31   4  32 S10       30.24S WCI  22
ONEILL         SUNNY     28   3  34 S17G23    30.33F WCI  16
BROKEN BOW     SUNNY     28   7  41 S15G28    30.31F WCI  16
IMPERIAL         N/A     39   8  27 W9        30.27F WCI  33
NORTH PLATTE   SUNNY     34  11  38 SW13      30.28F WCI  25
MCCOOK         SUNNY     35  14  42 VRB6      30.33F WCI  30

...EASTERN NEBRASKA...

CITY           SKY/WX    TMP DP  RH WIND       PRES   REMARKS
NORFOLK        FAIR      25   1  35 S14       30.41F WCI  13
SO SIOUX CITY  FAIR      21   1  41 S12       30.50F WCI   9
TEKAMAH        FAIR      21   1  41 S6        30.52F WCI  13
COLUMBUS       FAIR      25   0  33 S10G21    30.47F WCI  15
ALBION         FAIR      27   1  33 SW15      30.39F WCI  15
OMAHA EPPLEY   FAIR      19   1  45 S7        30.54F WCI  10
OFFUTT AFB     FAIR      19  -1  41 VRB3      30.53F
MILLARD        FAIR      20   1  42 S6        30.53F WCI  13
LINCOLN        FAIR      23   2  40 SE8       30.51F WCI  14
NEBRASKA CITY  FAIR      21  -5  31 SE5       30.53F WCI  15
BEATRICE       FAIR      24   2  39 S3        30.51F
FALLS CITY     FAIR      23  -1  35 CALM      30.56F

...NORTHERN KANSAS...

CITY           SKY/WX    TMP DP  RH WIND       PRES   REMARKS
GOODLAND       SUNNY     41  11  29 SW9       30.30F
HILL CITY      FAIR      36  11  35 VRB5      30.39F WCI  32
NORTON         CLEAR     34   9  35 SE7       30.36F WCI  28
PHILLIPSBURG   SUNNY     32  12  43 SE5       30.42F WCI  27
SMITH CENTER   SUNNY     28   7  40 S9        30.44F WCI  20
BELOIT         SUNNY     30   5  34 SE5       30.46F WCI  25
HAYS           FAIR      37  10  32 SW6       30.41F WCI  33
RUSSELL        FAIR      36  14  40 VRB3      30.41F
CONCORDIA      FAIR      29   6  38 S10       30.47F WCI  20
SALINA         FAIR      35   9  33 SE8       30.49F WCI  29
TOPEKA         FAIR      24   2  38 CALM      30.57F



USA.gov is the U.S. government's official web portal to all federal, state and local government web resources and services.